Temperature
17 17 17 17 17 17 17 17 17 17 17 17 17 17 17 17 17 17 17 17 17 17 17 17 17 17 17 17 17 17 17 17 17 17 17 17 17 16 16 16 16 16 16
17 17 16 16 16 16 16 16 16 16 16 16 16 16 16 17 17 17 17 17 17 17 17 17 17 17 17 17 17 17 17 17 17 17 17 16 17 16 16 16 16 16 16
16 16 16 16 15 15 16 16 16 16 16 16 16 16 16 16 16 16 16 16 16 17 17 16 16 17 17 17 17 17 17 17 17 17 17 16 16 16 16 16 16 16 16
15 15 15 15 15 15 15 15 15 15 15 15 15 16 16 16 16 16 16 16 16 16 16 16 16 16 16 16 16 17 17 17 17 16 16 16 16 16 16 16 16 16 16
15 15 15 15 15 15 15 14 14 15 15 15 15 15 15 15 15 16 16 16 16 16 16 16 16 16 16 16 16 16 16 16 16 16 16 16 16 16 16 16 16 16 16
15 14 14 14 14 14 14 14 14 14 14 14 15 15 15 15 15 15 16 16 16 16 16 16 16 16 16 16 16 16 16 16 16 16 16 16 16 16 16 16 16 16 16
14 14 14 14 14 14 14 14 14 14 14 14 14 15 15 15 15 15 15 16 16 16 16 16 16 16 16 16 16 16 16 16 16 16 16 16 16 16 16 16 16 16 16
14 14 14 14 13 13 13 13 13 13 13 14 14 14 14 14 14 15 15 15 15 16 16 16 16 16 16 16 16 16 16 16 16 16 16 16 16 16 16 16 16 16 16
14 14 13 13 13 13 13 13 13 13 13 13 13 14 14 14 14 14 14 15 15 15 15 15 16 16 16 16 16 16 15 16 16 16 16 16 16 16 16 16 16 16 16
14 14 13 13 13 13 13 13 13 13 13 13 13 13 13 13 14 14 14 14 14 14 15 15 15 15 15 15 15 15 15 15 15 15 15 16 16 16 16 16 16 16 16
14 14 13 13 13 13 12 12 12 12 12 12 12 12 12 12 13 13 13 14 14 14 14 14 15 15 15 15 15 15 15 15 15 15 15 15 15 16 16 16 16 16 16
14 14 13 13 13 12 12 12 12 12 12 12 12 12 12 12 12 12 12 13 13 14 14 14 14 14 15 15 15 15 15 15 15 15 15 15 15 15 15 15 15 15 16
15 14 14 13 13 12 12 12 12 12 12 12 11 11 11 11 11 11 12 12 12 13 13 13 14 14 14 14 14 15 15 15 15 15 15 15 15 15 15 15 15 15 15
15 14 14 13 13 13 12 12 12 12 12 11 11 11 11 11 11 11 11 11 11 12 12 13 13 13 13 13 14 14 14 14 15 15 15 15 15 15 15 15 15 15 15
15 15 14 14 13 13 12 12 12 12 11 11 11 11 11 11 11 11 11 10 10 10 11 12 12 12 12 13 13 13 13 14 14 14 14 15 15 15 15 15 15 15 15
16 15 15 14 14 13 13 12 12 12 12 11 11 11 11 11 11 11 10 10 10 10 10 11 11 11 12 12 12 12 13 13 13 13 14 14 14 14 14 15 15 15 15
16 16 15 15 14 14 13 13 13 12 12 12 11 11 11 11 11 11 10 10 10 10 10 10 11 11 11 11 12 12 12 12 13 13 13 13 14 14 14 14 14 14 15
17 16 16 15 15 14 14 13 13 13 12 12 12 11 11 11 11 11 10 10 10 10 10 10 10 10 11 11 11 11 12 12 12 13 13 13 13 13 14 14 14 14 14
17 17 16 16 16 15 14 14 14 13 13 12 12 12 11 11 11 11 10 10 10 10 10 10 10 10 10 10 11 11 11 11 11 12 12 12 13 13 13 13 14 14 14
17 17 17 16 16 15 15 14 14 14 13 13 12 12 12 11 11 11 11 10 10 10 10 10 10 10 10 10 10 10 10 11 11 11 11 12 12 12 13 13 13 13 13
18 17 17 17 16 16 15 15 14 14 14 13 13 12 12 11 11 11 10 10 10 10 10 9 10 10 10 10 10 10 10 10 10 11 11 11 11 12 12 12 13 13 13
18 17 17 17 16 16 16 15 15 14 14 13 13 13 12 12 11 11 11 10 10 10 10 9 9 9 10 10 9 9 9 9 10 10 10 11 11 11 11 12 12 12 12
18 17 17 17 16 16 16 15 15 14 14 14 13 13 12 12 11 11 11 10 10 10 10 9 9 9 9 9 9 9 9 9 9 9 9 10 11 11 11 11 12 12 12
17 17 17 16 16 16 15 15 15 14 14 14 13 13 12 12 12 11 11 10 10 10 10 9 9 9 9 9 9 9 9 9 9 9 9 9 10 11 11 11 12 12 12
16 16 16 16 16 15 15 15 14 14 14 14 13 13 12 12 12 11 10 10 10 11 10 10 9 9 9 9 9 8 8 8 8 9 9 9 9 10 10 11 11 12 12
15 15 15 15 15 15 14 14 14 13 13 13 13 13 13 12 12 11 10 10 10 11 10 10 9 9 9 9 9 8 8 8 8 8 9 9 9 9 9 10 11 11 11
Wind_Speed
4 4 5 6 6 5 3 2 1 1 0 0 1 2 3 3 4 4 5 7 9 12 14 14 15 16 16 16 16 16 16 16 16 16 15 15 14 14 13 13 12 12 12
5 5 5 5 6 6 5 3 3 2 1 1 1 1 1 2 3 3 4 5 7 10 13 15 15 15 16 16 17 17 17 17 17 17 17 16 16 15 14 14 13 13 13
7 6 5 4 5 6 6 6 5 4 3 2 2 1 1 1 1 2 4 5 5 7 11 14 15 15 15 16 17 17 18 19 19 19 19 18 18 18 17 16 15 15 14
8 7 5 4 6 7 6 4 3 3 3 3 2 1 1 1 1 2 4 5 6 6 9 13 15 16 16 17 17 17 19 20 20 21 20 20 20 20 19 18 17 16 16
7 8 5 5 6 6 5 4 4 3 3 3 2 1 2 2 2 2 2 4 6 7 8 10 14 16 17 17 17 18 18 20 21 22 22 22 22 22 21 21 19 19 18
6 7 5 5 5 4 4 4 4 4 2 2 2 2 2 3 2 2 2 2 3 5 7 9 10 13 16 18 18 18 19 19 21 22 23 23 23 23 23 23 22 21 20
5 5 4 4 4 4 3 3 2 4 4 3 2 3 3 3 3 4 3 3 3 2 3 5 7 9 11 14 18 19 20 20 20 21 23 24 24 24 25 25 24 23 22
4 4 4 3 3 3 4 4 3 2 3 4 2 2 3 3 3 4 4 5 5 4 3 2 4 6 8 9 12 16 19 20 20 21 22 23 24 25 26 26 26 26 25
4 4 5 4 3 3 3 3 3 3 2 3 3 2 2 0 2 3 3 5 5 4 4 5 4 3 5 7 9 11 14 17 19 20 22 23 24 26 26 27 27 27 27
4 5 5 5 4 2 2 2 2 2 2 2 2 3 1 1 1 2 3 3 5 5 6 5 5 5 4 3 6 8 10 12 14 17 19 21 22 24 26 27 28 28 28
3 5 6 5 4 3 2 2 2 2 1 1 1 1 2 2 2 1 2 4 4 3 4 4 4 5 5 4 4 5 8 10 12 13 15 17 19 21 24 26 28 28 29
2 5 6 6 5 4 3 3 3 2 2 2 1 1 1 1 1 1 1 2 3 3 4 3 3 5 6 6 5 6 6 7 9 10 12 14 16 17 20 23 26 28 29
3 5 5 5 4 5 5 4 3 3 2 2 2 1 1 1 1 2 1 1 2 2 3 2 3 5 7 8 8 8 7 7 7 8 9 11 12 14 16 19 22 25 28
5 5 6 6 6 6 5 4 3 3 3 3 3 3 2 2 3 3 2 2 1 2 2 3 2 3 6 8 9 9 8 8 8 8 8 10 11 12 14 16 19 21 24
4 5 6 6 6 6 5 4 4 4 3 4 4 4 3 3 3 3 3 3 2 2 3 3 2 3 6 8 9 8 8 9 9 8 8 9 10 12 13 14 16 18 20
5 6 6 7 6 6 5 5 5 5 5 5 4 4 4 3 3 4 4 4 4 4 4 3 3 3 6 8 8 8 9 10 9 9 9 10 11 12 14 14 15 17 18
7 7 7 7 7 7 6 6 7 6 6 6 5 6 7 5 4 4 4 4 5 5 6 5 3 3 4 6 7 8 8 8 9 10 11 11 12 13 14 15 16 16 17
8 8 7 7 8 8 7 7 8 7 8 8 7 7 8 6 6 5 5 6 6 6 6 7 4 4 5 5 5 6 7 7 7 11 12 12 12 13 14 15 16 17 17
9 8 8 9 9 8 8 8 9 8 9 9 8 8 8 7 8 6 7 7 6 6 6 6 6 4 4 4 4 4 5 5 7 8 9 9 10 11 12 14 15 16 17
10 10 10 10 10 9 9 9 9 9 9 9 9 9 9 9 10 9 8 8 7 7 6 6 7 6 5 4 4 4 5 3 4 5 6 6 7 7 9 12 14 15 16
11 10 10 10 10 9 9 10 10 10 10 10 10 10 10 12 13 11 8 8 8 7 6 7 7 5 5 5 5 4 5 5 5 4 3 4 4 6 8 9 11 14 16
10 9 10 11 11 10 13 15 12 10 10 11 11 10 10 12 13 14 15 14 12 10 10 8 8 9 9 7 6 5 4 4 4 2 2 4 4 6 7 9 12 15 16
10 11 11 11 12 13 16 16 16 12 11 11 12 11 10 10 12 11 12 13 14 15 15 12 12 12 10 8 6 6 6 7 7 4 3 6 5 7 8 11 15 17 18
8 10 11 11 11 13 16 17 17 13 12 13 13 13 12 12 11 11 11 11 12 12 13 13 13 13 13 11 9 8 7 6 6 6 5 6 6 7 8 11 15 17 18
8 8 7 10 11 13 16 17 15 10 11 14 14 13 14 14 15 15 12 13 13 12 13 16 17 16 16 15 10 6 6 6 7 6 5 5 5 6 7 8 11 14 14
8 7 8 9 10 12 13 16 15 10 12 13 12 12 16 17 17 16 14 13 14 14 11 9 10 12 13 13 14 12 10 9 7 6 6 6 5 4 4 4 4 5 6
Wind_Direction
72 61 50 46 43 50 58 60 66 79 33 299 221 220 231 233 226 218 230 239 229 221 218 215 207 203 203 202 199 197 195 195 193 192 192 188 185 186 187 185 182 179 177
88 75 58 45 39 43 56 70 80 87 64 36 7 271 241 229 223 219 235 253 247 231 223 220 218 212 208 207 207 205 202 201 200 198 198 197 193 192 194 194 191 189 186
90 83 69 52 38 48 63 66 66 69 62 48 33 11 4 291 231 227 241 252 256 244 229 223 223 222 219 217 214 212 209 207 205 203 202 203 201 199 199 200 199 197 194
93 84 72 54 47 57 61 65 55 59 47 40 30 8 357 337 303 264 248 250 250 248 239 229 226 229 228 226 224 220 216 212 210 208 207 207 207 206 205 205 204 203 202
93 86 76 60 59 61 53 63 57 61 44 18 0 26 3 345 326 309 284 266 256 250 245 241 235 237 236 234 231 229 224 219 215 213 212 211 211 210 209 209 209 208 207
102 93 81 64 66 66 55 59 67 54 45 3 5 19 4 358 2 3 341 317 283 260 249 245 244 244 242 239 237 234 232 227 222 218 217 215 215 213 212 213 212 211 211
117 102 91 74 68 70 62 66 79 55 32 5 39 13 358 11 34 31 26 25 10 335 272 251 247 245 247 246 243 240 237 234 231 227 223 220 218 216 215 215 215 214 214
146 124 116 103 89 84 66 54 68 75 30 22 66 73 17 0 4 17 27 35 25 24 15 329 260 249 248 249 248 245 241 238 237 234 230 225 222 220 218 217 216 216 216
176 152 143 127 109 99 89 67 66 87 71 26 36 105 119 189 320 337 6 19 16 25 15 8 5 315 264 252 252 251 247 243 240 238 235 230 226 224 222 220 218 218 217
193 179 164 148 131 117 112 89 80 83 100 57 24 36 68 135 103 340 335 350 2 17 7 6 8 3 344 291 263 257 256 253 249 245 241 237 233 229 226 224 223 221 220
212 195 180 168 156 152 151 131 113 102 102 115 79 53 63 58 65 106 322 333 341 340 347 348 359 7 4 347 312 287 272 263 260 256 251 246 241 236 231 228 227 226 225
228 205 189 184 179 175 176 171 157 145 145 137 134 130 134 127 126 132 240 306 316 314 327 336 357 2 4 1 342 325 304 284 271 264 261 257 251 245 240 235 233 231 229
217 211 192 189 191 195 193 183 177 183 178 173 177 183 188 196 178 169 187 253 290 305 318 322 338 353 6 3 357 349 335 324 303 284 274 267 261 254 248 245 241 237 234
215 206 196 200 205 202 200 192 197 207 199 200 202 197 204 212 195 189 188 187 273 300 301 297 315 331 354 353 350 351 343 338 329 313 293 280 273 266 260 254 248 244 240
217 206 201 204 210 210 207 197 214 223 211 217 220 216 219 223 212 212 205 194 197 256 281 279 290 309 330 330 336 338 331 329 325 317 305 290 279 273 270 264 258 252 247
210 202 208 212 216 217 212 208 223 227 222 230 223 222 228 228 220 215 213 212 210 215 247 260 261 284 303 309 316 324 319 318 315 309 300 292 283 275 269 266 263 256 250
205 208 211 212 217 222 219 216 228 228 230 239 234 228 236 229 225 221 214 213 214 210 241 264 256 271 280 288 305 311 310 306 304 302 296 288 281 275 269 266 264 260 255
210 212 211 213 220 224 221 220 232 233 231 239 240 234 242 235 230 226 218 220 223 217 229 260 266 265 262 274 283 293 300 303 299 298 295 287 281 276 272 266 263 260 256
213 214 212 218 224 226 226 226 230 235 235 239 240 238 242 233 237 232 225 229 232 231 224 242 263 259 265 271 281 284 288 293 301 300 299 293 287 281 274 268 263 259 255
214 216 217 221 225 227 230 232 233 237 241 243 241 238 240 234 237 236 232 232 232 236 234 242 259 262 262 263 259 269 283 282 296 300 299 299 301 303 291 277 266 260 255
220 219 220 225 226 227 232 230 232 237 240 245 245 242 241 240 238 233 231 230 226 233 239 245 255 258 259 254 252 249 266 282 283 267 283 287 297 302 299 288 274 264 258
221 218 223 226 229 232 230 225 224 233 235 240 245 246 245 248 248 242 238 232 222 229 238 242 252 254 258 254 250 245 251 263 277 251 259 284 285 287 285 280 274 270 264
222 224 228 227 232 235 232 232 228 228 233 237 239 243 247 244 236 242 246 247 242 235 230 236 248 251 255 248 239 244 236 238 248 253 255 278 273 277 278 278 275 272 266
228 232 234 233 237 243 235 234 233 232 236 239 238 236 239 244 238 233 241 247 248 246 240 239 242 248 248 247 235 241 248 249 255 254 230 260 269 270 278 277 275 271 267
237 239 240 234 237 247 239 234 231 235 239 243 241 237 235 241 238 226 233 245 252 255 248 241 240 243 244 240 227 226 228 234 257 259 211 229 260 270 274 273 272 270 266
245 250 252 247 245 252 249 239 229 234 241 247 246 241 233 234 235 222 226 233 245 251 249 250 244 246 247 246 227 222 227 235 249 260 225 213 243 254 277 263 269 276 275
Height
1556 1556 1556 1556 1557 1558 1559 1559 1560 1561 1562 1563 1564 1565 1566 1567 1568 1569 1571 1572 1574 1575 1577 1578 1580 1582 1584 1586 1588 1589 1591 1593 1595 1597 1598 1600 1602 1603 1605 1606 1607 1609 1610
1555 1554 1554 1555 1556 1556 1557 1558 1559 1559 1560 1561 1562 1562 1564 1565 1566 1567 1568 1570 1571 1573 1575 1576 1578 1580 1582 1584 1586 1588 1590 1592 1594 1596 1597 1599 1601 1603 1604 1606 1607 1609 1610
1554 1554 1554 1554 1555 1555 1556 1557 1557 1558 1559 1559 1560 1561 1562 1563 1564 1565 1566 1567 1569 1570 1572 1574 1576 1578 1580 1582 1584 1586 1588 1590 1592 1594 1596 1598 1600 1602 1603 1605 1607 1608 1610
1554 1554 1553 1554 1554 1554 1555 1556 1556 1557 1557 1558 1558 1559 1560 1561 1562 1563 1564 1565 1566 1568 1569 1571 1573 1575 1577 1579 1581 1583 1585 1587 1590 1592 1594 1596 1598 1600 1602 1604 1605 1607 1609
1554 1554 1553 1553 1553 1553 1554 1554 1555 1555 1556 1556 1557 1558 1558 1559 1560 1561 1561 1562 1563 1565 1566 1568 1570 1572 1574 1576 1578 1580 1582 1584 1586 1589 1591 1593 1596 1598 1600 1602 1604 1605 1607
1554 1554 1553 1553 1552 1553 1553 1553 1553 1554 1554 1555 1556 1556 1557 1557 1558 1558 1559 1560 1560 1561 1563 1564 1566 1568 1570 1572 1574 1576 1578 1580 1582 1585 1587 1590 1592 1595 1597 1599 1601 1603 1605
1555 1554 1553 1553 1552 1552 1552 1552 1552 1552 1553 1553 1554 1555 1555 1556 1556 1557 1557 1557 1558 1559 1560 1561 1562 1564 1566 1568 1569 1572 1574 1576 1578 1581 1583 1586 1588 1591 1593 1596 1598 1600 1602
1555 1554 1554 1553 1552 1552 1552 1552 1551 1551 1551 1551 1552 1553 1553 1555 1555 1555 1555 1556 1556 1557 1558 1558 1559 1560 1562 1563 1565 1567 1569 1571 1573 1576 1578 1581 1583 1586 1589 1591 1594 1596 1599
1555 1555 1554 1553 1553 1552 1552 1551 1551 1551 1551 1550 1551 1552 1552 1552 1553 1554 1554 1555 1555 1555 1556 1556 1557 1558 1559 1560 1561 1563 1565 1567 1569 1571 1573 1575 1578 1580 1583 1586 1589 1592 1594
1555 1554 1554 1553 1553 1552 1551 1551 1551 1550 1550 1550 1550 1551 1552 1552 1553 1553 1554 1554 1554 1554 1555 1555 1555 1555 1556 1557 1558 1559 1561 1562 1564 1566 1567 1569 1572 1574 1577 1580 1583 1586 1589
1554 1553 1553 1553 1553 1552 1551 1551 1550 1550 1550 1550 1550 1550 1550 1551 1551 1552 1552 1553 1553 1553 1553 1553 1553 1553 1554 1554 1555 1556 1557 1558 1559 1561 1562 1564 1566 1568 1571 1574 1577 1579 1582
1552 1552 1552 1552 1552 1552 1551 1550 1550 1549 1549 1549 1549 1549 1549 1549 1550 1550 1550 1550 1550 1551 1551 1551 1551 1551 1551 1552 1552 1553 1553 1554 1555 1556 1557 1559 1561 1562 1565 1567 1570 1572 1575
1550 1550 1551 1551 1551 1551 1550 1550 1549 1549 1548 1548 1548 1548 1548 1548 1548 1548 1548 1548 1548 1548 1548 1549 1549 1549 1549 1549 1549 1550 1550 1551 1551 1552 1553 1554 1555 1557 1558 1560 1563 1565 1568
1548 1549 1549 1549 1549 1549 1549 1548 1548 1548 1548 1547 1547 1547 1547 1547 1547 1546 1547 1546 1545 1545 1545 1546 1546 1546 1546 1546 1546 1546 1547 1547 1547 1548 1549 1549 1550 1551 1553 1554 1556 1558 1560
1546 1546 1546 1546 1547 1547 1547 1546 1546 1546 1546 1546 1546 1545 1545 1545 1544 1544 1544 1544 1544 1543 1541 1541 1542 1542 1542 1542 1542 1542 1543 1543 1543 1544 1544 1545 1545 1546 1547 1548 1549 1551 1552
1544 1544 1544 1544 1544 1544 1544 1544 1544 1544 1544 1544 1543 1543 1542 1542 1542 1541 1541 1541 1540 1540 1539 1538 1538 1538 1538 1538 1538 1538 1538 1539 1539 1539 1539 1540 1541 1541 1542 1542 1543 1544 1545
1541 1541 1541 1541 1541 1541 1541 1541 1541 1541 1541 1541 1540 1540 1539 1539 1538 1538 1537 1537 1537 1536 1534 1534 1534 1534 1533 1533 1533 1533 1533 1533 1534 1534 1535 1535 1535 1536 1536 1536 1537 1538 1539
1538 1538 1538 1538 1538 1538 1538 1538 1538 1537 1537 1537 1536 1536 1535 1535 1534 1534 1533 1533 1532 1532 1531 1529 1529 1529 1529 1528 1528 1528 1528 1528 1528 1528 1529 1529 1530 1530 1530 1530 1531 1531 1532
1535 1535 1535 1535 1535 1535 1535 1534 1534 1533 1533 1532 1532 1531 1531 1530 1530 1529 1529 1528 1528 1527 1526 1524 1523 1523 1523 1523 1523 1522 1522 1522 1522 1522 1522 1523 1523 1523 1524 1524 1524 1524 1525
1531 1531 1531 1531 1531 1531 1530 1530 1529 1529 1528 1527 1527 1526 1526 1525 1524 1524 1524 1523 1523 1522 1521 1519 1518 1518 1518 1518 1517 1517 1516 1516 1516 1516 1516 1516 1516 1517 1517 1517 1517 1518 1518
1526 1527 1527 1527 1527 1526 1526 1525 1525 1524 1523 1522 1521 1521 1520 1519 1519 1518 1518 1517 1517 1516 1515 1514 1513 1512 1512 1512 1512 1512 1511 1510 1510 1510 1510 1510 1510 1510 1511 1511 1511 1511 1511
1521 1521 1521 1521 1521 1521 1521 1520 1519 1518 1517 1516 1515 1515 1514 1513 1512 1512 1511 1511 1510 1509 1508 1508 1507 1506 1506 1507 1507 1506 1506 1505 1504 1505 1504 1504 1504 1504 1504 1505 1504 1504 1504
1515 1515 1515 1515 1515 1515 1515 1514 1513 1512 1511 1510 1509 1508 1507 1506 1506 1505 1504 1504 1503 1502 1502 1502 1500 1500 1500 1501 1501 1500 1500 1499 1498 1499 1498 1496 1497 1497 1498 1497 1498 1498 1498
1508 1508 1508 1508 1508 1508 1508 1507 1507 1505 1504 1502 1502 1501 1500 1499 1499 1498 1497 1496 1496 1495 1495 1494 1494 1493 1494 1495 1495 1495 1494 1493 1492 1493 1492 1490 1490 1490 1490 1490 1490 1490 1491
1501 1501 1501 1500 1499 1499 1500 1499 1499 1497 1496 1495 1494 1493 1492 1491 1491 1491 1490 1489 1488 1488 1489 1488 1487 1487 1488 1488 1488 1488 1487 1487 1485 1485 1486 1484 1483 1483 1482 1482 1483 1483 1483
1493 1493 1492 1492 1491 1491 1491 1491 1491 1488 1486 1486 1485 1484 1484 1483 1483 1483 1482 1481 1480 1480 1482 1481 1481 1481 1481 1481 1481 1481 1481 1480 1479 1478 1478 1478 1477 1477 1475 1475 1475 1476 1476